• In Russia
  • List of Countries
  • For 7 days
  • Water Temperature
  • Satellite Maps
  • Weather Map
  • Weather Widgets
  • user-avatar
    Login

    Hourly Weather Kondurovka

    Today, 24 May, Friday

    Time Temperature Precipitation Wind Pressure Humidity
    00:00 +13°C° 0 mm 3 mps 741 mmHg 49%
    01:00 +12°C° 0 mm 3 mps 741 mmHg 48%
    02:00 +12°C° 0 mm 3 mps 741 mmHg 48%
    03:00 +12°C° 0 mm 3 mps 741 mmHg 48%
    04:00 +12°C° 0 mm 4 mps 740 mmHg 46%
    05:00 +13°C° 0 mm 4 mps 740 mmHg 48%
    06:00 +14°C° 0 mm 4 mps 740 mmHg 51%
    07:00 +15°C° 0 mm 4 mps 740 mmHg 53%
    08:00 +16°C° 0 mm 5 mps 739 mmHg 50%
    09:00 +19°C° 0 mm 5 mps 739 mmHg 48%
    10:00 +22°C° 0 mm 5 mps 739 mmHg 48%
    11:00 +22°C° 0.3 mm 6 mps 739 mmHg 50%
    12:00 +22°C° 0.3 mm 7 mps 738 mmHg 53%
    13:00 +21°C° 0.3 mm 8 mps 738 mmHg 55%
    14:00 +20°C° 0.4 mm 8 mps 738 mmHg 61%
    15:00 +18°C° 0.4 mm 8 mps 738 mmHg 66%
    16:00 +17°C° 0.4 mm 7 mps 738 mmHg 72%
    17:00 +16°C° 1.2 mm 7 mps 738 mmHg 76%
    18:00 +16°C° 1.2 mm 6 mps 738 mmHg 81%
    19:00 +15°C° 1.2 mm 5 mps 739 mmHg 86%
    20:00 +13°C° 0.6 mm 5 mps 739 mmHg 86%
    21:00 +12°C° 0.6 mm 5 mps 740 mmHg 86%
    22:00 +9°C° 0.6 mm 5 mps 740 mmHg 86%
    23:00 +8°C° 0 mm 5 mps 741 mmHg 86%

    Tomorrow, 25 May, Saturday

    Time Temperature Precipitation Wind Pressure Humidity
    00:00 +7°C° 0 mm 5 mps 742 mmHg 86%
    01:00 +5°C° 0 mm 4 mps 742 mmHg 86%
    02:00 +4°C° 0 mm 4 mps 743 mmHg 86%
    03:00 +4°C° 0 mm 4 mps 744 mmHg 86%
    04:00 +3°C° 0 mm 4 mps 745 mmHg 86%
    05:00 +4°C° 0 mm 4 mps 746 mmHg 79%
    06:00 +5°C° 0 mm 5 mps 746 mmHg 73%
    07:00 +6°C° 0 mm 5 mps 747 mmHg 66%
    08:00 +8°C° 0 mm 5 mps 747 mmHg 59%
    09:00 +9°C° 0 mm 5 mps 748 mmHg 52%
    10:00 +11°C° 0 mm 4 mps 748 mmHg 45%
    11:00 +12°C° 0 mm 4 mps 748 mmHg 42%
    12:00 +13°C° 0 mm 3 mps 749 mmHg 40%
    13:00 +14°C° 0 mm 3 mps 749 mmHg 37%
    14:00 +14°C° 0 mm 3 mps 749 mmHg 38%
    15:00 +16°C° 0 mm 2 mps 749 mmHg 38%
    16:00 +16°C° 0 mm 2 mps 749 mmHg 38%
    17:00 +15°C° 0 mm 2 mps 749 mmHg 45%
    18:00 +14°C° 0 mm 2 mps 749 mmHg 51%
    19:00 +14°C° 0 mm 2 mps 749 mmHg 58%
    20:00 +12°C° 0 mm 2 mps 750 mmHg 61%
    21:00 +9°C° 0 mm 2 mps 750 mmHg 64%
    22:00 +8°C° 0 mm 2 mps 750 mmHg 67%
    23:00 +7°C° 0 mm 2 mps 750 mmHg 66%

    Day after tomorrow, 26 May, Sunday

    Time Temperature Precipitation Wind Pressure Humidity
    00:00 +7°C° 0 mm 2 mps 751 mmHg 65%
    01:00 +7°C° 0 mm 2 mps 751 mmHg 64%
    02:00 +6°C° 0 mm 2 mps 751 mmHg 63%
    03:00 +6°C° 0 mm 2 mps 751 mmHg 62%
    04:00 +6°C° 0 mm 2 mps 752 mmHg 61%
    05:00 +7°C° 0 mm 3 mps 752 mmHg 59%
    06:00 +8°C° 0 mm 4 mps 752 mmHg 58%
    07:00 +10°C° 0 mm 5 mps 752 mmHg 56%
    08:00 +12°C° 0 mm 5 mps 752 mmHg 53%
    09:00 +14°C° 0 mm 6 mps 752 mmHg 49%
    10:00 +16°C° 0 mm 6 mps 752 mmHg 46%
    11:00 +17°C° 0 mm 6 mps 751 mmHg 44%
    12:00 +19°C° 0 mm 6 mps 751 mmHg 42%
    13:00 +20°C° 0 mm 6 mps 751 mmHg 40%
    14:00 +21°C° 0 mm 6 mps 751 mmHg 40%
    15:00 +22°C° 0 mm 6 mps 751 mmHg 40%
    16:00 +22°C° 0 mm 5 mps 750 mmHg 40%
    17:00 +21°C° 0 mm 5 mps 750 mmHg 46%
    18:00 +20°C° 0 mm 5 mps 750 mmHg 52%
    19:00 +19°C° 0 mm 4 mps 749 mmHg 57%
    20:00 +17°C° 0 mm 5 mps 749 mmHg 54%
    21:00 +16°C° 0 mm 5 mps 749 mmHg 51%
    22:00 +15°C° 0 mm 6 mps 750 mmHg 47%
    23:00 +15°C° 0 mm 5 mps 750 mmHg 45%

    27 May, Monday

    Time Temperature Precipitation Wind Pressure Humidity
    00:00 +15°C° 0 mm 5 mps 750 mmHg 44%
    01:00 +14°C° 0 mm 5 mps 750 mmHg 42%
    02:00 +14°C° 0 mm 4 mps 750 mmHg 41%
    03:00 +14°C° 0 mm 4 mps 750 mmHg 40%
    04:00 +14°C° 0 mm 4 mps 750 mmHg 39%
    05:00 +14°C° 0 mm 4 mps 750 mmHg 42%
    06:00 +15°C° 0 mm 5 mps 750 mmHg 46%
    07:00 +15°C° 0 mm 5 mps 750 mmHg 49%
    08:00 +17°C° 0 mm 6 mps 750 mmHg 46%
    09:00 +18°C° 0 mm 7 mps 750 mmHg 42%
    10:00 +21°C° 0 mm 7 mps 750 mmHg 39%
    11:00 +22°C° 0 mm 7 mps 749 mmHg 37%
    12:00 +23°C° 0 mm 7 mps 749 mmHg 36%
    13:00 +26°C° 0 mm 7 mps 748 mmHg 34%
    14:00 +26°C° 0 mm 7 mps 748 mmHg 35%
    15:00 +26°C° 0 mm 6 mps 747 mmHg 35%
    16:00 +27°C° 0 mm 6 mps 747 mmHg 36%
    17:00 +26°C° 0 mm 5 mps 747 mmHg 41%
    18:00 +23°C° 0 mm 5 mps 747 mmHg 46%
    19:00 +22°C° 0 mm 4 mps 746 mmHg 51%
    20:00 +21°C° 0 mm 4 mps 747 mmHg 48%
    21:00 +20°C° 0 mm 4 mps 747 mmHg 46%
    22:00 +19°C° 0 mm 4 mps 747 mmHg 44%
    23:00 +18°C° 0 mm 3 mps 747 mmHg 43%

    28 May, Tuesday

    Time Temperature Precipitation Wind Pressure Humidity
    00:00 +18°C° 0 mm 3 mps 746 mmHg 42%
    01:00 +17°C° 0 mm 3 mps 746 mmHg 40%
    02:00 +17°C° 0 mm 3 mps 746 mmHg 41%
    03:00 +17°C° 0 mm 3 mps 747 mmHg 41%
    04:00 +16°C° 0 mm 3 mps 747 mmHg 41%
    05:00 +17°C° 0 mm 3 mps 747 mmHg 49%
    06:00 +18°C° 0 mm 2 mps 747 mmHg 57%
    07:00 +18°C° 0 mm 2 mps 747 mmHg 66%
    08:00 +20°C° 0 mm 3 mps 747 mmHg 64%
    09:00 +22°C° 0 mm 3 mps 747 mmHg 62%
    10:00 +25°C° 0 mm 3 mps 747 mmHg 60%
    11:00 +26°C° 0 mm 3 mps 747 mmHg 56%
    12:00 +26°C° 0 mm 4 mps 747 mmHg 53%
    13:00 +27°C° 0 mm 4 mps 746 mmHg 49%
    14:00 +27°C° 0 mm 4 mps 746 mmHg 46%
    15:00 +27°C° 0 mm 4 mps 746 mmHg 43%
    16:00 +27°C° 0 mm 4 mps 746 mmHg 41%
    17:00 +26°C° 0 mm 4 mps 746 mmHg 46%
    18:00 +25°C° 0 mm 4 mps 746 mmHg 52%
    19:00 +22°C° 0 mm 3 mps 746 mmHg 57%
    20:00 +21°C° 0 mm 3 mps 746 mmHg 59%
    21:00 +20°C° 0 mm 3 mps 746 mmHg 60%
    22:00 +19°C° 0 mm 3 mps 746 mmHg 61%
    23:00 +18°C° 0 mm 3 mps 746 mmHg 61%

    29 May, Wednesday

    Time Temperature Precipitation Wind Pressure Humidity
    00:00 +18°C° 0 mm 3 mps 746 mmHg 61%
    01:00 +17°C° 0 mm 2 mps 746 mmHg 60%
    02:00 +17°C° 0 mm 3 mps 746 mmHg 61%
    03:00 +17°C° 0 mm 3 mps 747 mmHg 61%
    04:00 +17°C° 0 mm 3 mps 747 mmHg 61%
    05:00 +18°C° 0 mm 3 mps 747 mmHg 61%
    06:00 +19°C° 0 mm 4 mps 747 mmHg 61%
    07:00 +21°C° 0 mm 4 mps 748 mmHg 61%
    08:00 +23°C° 0 mm 4 mps 748 mmHg 57%
    09:00 +26°C° 0 mm 4 mps 748 mmHg 54%
    10:00 +27°C° 0 mm 5 mps 748 mmHg 51%
    11:00 +28°C° 0 mm 4 mps 748 mmHg 48%
    12:00 +29°C° 0 mm 4 mps 748 mmHg 44%
    13:00 +30°C° 0 mm 4 mps 748 mmHg 41%
    14:00 +30°C° 0 mm 3 mps 747 mmHg 40%
    15:00 +31°C° 0 mm 3 mps 747 mmHg 39%
    16:00 +31°C° 0 mm 3 mps 747 mmHg 38%
    17:00 +30°C° 0 mm 3 mps 747 mmHg 45%
    18:00 +28°C° 0 mm 3 mps 748 mmHg 52%
    19:00 +27°C° 0 mm 3 mps 748 mmHg 59%
    20:00 +25°C° 0 mm 3 mps 748 mmHg 65%
    21:00 +22°C° 0 mm 3 mps 748 mmHg 71%
    22:00 +20°C° 0 mm 3 mps 748 mmHg 76%
    23:00 +20°C° 0 mm 2 mps 748 mmHg 75%
    Show more